Regional Weather Roundup
Issued by NWS

Home | Current Version | Previous Version | Text Only | Print | Product List | Glossary Off
Versions: 1 2 3 4 5 6 7 8 9 10 11 12 13 14 15 16 17 18 19 20 21 22 23 24 25 26 27 28 29 30 31 32 33 34 35 36 37 38 39 40 41 42 43 44 45 46 47 48 49 50

000
ASUS43 KOAX 270110
RWRNE

WEATHER ROUNDUP FOR NEBRASKA
NATIONAL WEATHER SERVICE OMAHA NE
800 PM CDT FRI MAY 26 2017

NOTES: SATELLITE DATA IS BEING USED TO AUGMENT CLOUD COVER ABOVE
       12000 FEET.
       "FAIR" INDICATES FEW OR NO CLOUDS BELOW 12,000 FEET WITH NO
       SIGNIFICANT WEATHER AND/OR OBSTRUCTIONS TO VISIBILITY.

  * THESE STATIONS DO NOT REPORT WEATHER SUCH AS RAIN...SNOW OR FOG.

NEZ001>004-019>022-054>056-270200-
NEBRASKA PANHANDLE

CITY           SKY/WX    TMP DP  RH WIND       PRES   REMARKS
SCOTTSBLUFF    CLOUDY    58  48  69 N15       29.89R
ALLIANCE       CLOUDY    56  50  80 E9        29.87S
CHADRON        LGT RAIN  53  46  77 N12G22    29.94R
GORDON         DRIZZLE   57  51  79 E7        29.90F
KIMBALL        CLOUDY    51  46  83 NE16      29.84S
SIDNEY         CLOUDY    61  49  64 NE18      29.82R
$$

NEZ057>060-069>072-079>082-270200-
SOUTHWEST NEBRASKA

CITY           SKY/WX    TMP DP  RH WIND       PRES   REMARKS
NORTH PLATTE   CLOUDY    68  53  58 E6        29.87R
IMPERIAL       CLOUDY    65  51  60 S5        29.90R
LEXINGTON      CLOUDY    69  51  53 E6        29.85F
MCCOOK         CLOUDY    72  49  44 SE5       29.86R
OGALLALA       CLOUDY    69  48  47 SE6       29.86S
$$

NEZ005>010-023>029-035>040-094-270200-
NORTH CENTRAL NEBRASKA

CITY           SKY/WX    TMP DP  RH WIND       PRES   REMARKS
VALENTINE      CLOUDY    69  39  33 NE6       29.91R
AINSWORTH      MOSUNNY   67  45  45 CALM      29.92R
BROKEN BOW     CLEAR     70  47  43 E7        29.87S
O`NEILL        CLEAR     69  44  41 N3        29.89R
ORD            CLEAR     71  43  36 NE5       29.87S
THEDFORD       PTSUNNY   67  45  44 E7        29.91R
$$

NEZ041-046>049-061>064-073>077-083>087-270200-
SOUTH CENTRAL NEBRASKA

CITY           SKY/WX    TMP DP  RH WIND       PRES   REMARKS
GRAND ISLAND   CLEAR     75  46  35 NE5       29.86R
AURORA         CLEAR     76  44  32 NE5       29.85R HAZE
HASTINGS       CLEAR     74  46  36 E7        29.86R
HEBRON         CLEAR     78  49  35 E8        29.82S
HOLDREGE       CLEAR     72  46  40 E6        29.84F
KEARNEY *      CLEAR     72  46  40 E6        29.86S
YORK           CLEAR     73  48  40 NE6       29.85R
$$

NEZ011>018-030>034-042>045-270200-
NORTHEAST NEBRASKA

CITY           SKY/WX    TMP DP  RH WIND       PRES   REMARKS
NORFOLK        CLEAR     71  46  40 N6        29.85R
ALBION         CLEAR     70  46  43 NW6       29.87R
BLAIR          CLEAR     76  50  40 NE3       29.83R
FREMONT        CLEAR     78  43  29 CALM      29.84R
TEKAMAH        CLEAR     78  46  32 N8        29.81R
WAYNE          CLEAR     72  45  37 N7        29.85R
$$

NEZ050>053-065>068-078-088>093-270200-
SOUTHEAST NEBRASKA

CITY           SKY/WX    TMP DP  RH WIND       PRES   REMARKS
LINCOLN        CLEAR     76  52  43 NE7       29.83R
OMAHA EPPLEY   PTCLDY    78  50  37 NE6       29.81R
BEATRICE       CLEAR     78  50  37 NE5       29.83R
FALLS CITY     CLEAR     79  58  48 N7        29.79R
NEBRASKA CITY  CLEAR     78  41  27 N7        29.82S
PLATTSMOUTH    CLEAR     78  45  31 N3        29.83R
$$

NEZ044-045-051>053-067-270200-
OMAHA AREA

CITY           SKY/WX    TMP DP  RH WIND       PRES   REMARKS
OMAHA EPPLEY   PTCLDY    78  50  37 NE6       29.81R
BLAIR          CLEAR     76  50  40 NE3       29.83R
FREMONT        CLEAR     78  43  29 CALM      29.84R
MILLARD        CLEAR     80  51  36 CALM      29.82R
OFFUTT AFB     CLEAR     76  51  40 N6        29.81R
PLATTSMOUTH    CLEAR     78  45  31 N3        29.83R
WAHOO          FAIR      76  46  34 N6        29.83R
$$



USA.gov is the U.S. government's official web portal to all federal, state and local government web resources and services.